Temp
-11 -11 -11 -11 -11 -10 -11 -11 -11 -11 -11 -10 -10 -10 -10 -10 -10 -10 -11 -11 -11 -11 -10 -10 -10 -10 -10 -9 -9 -9 -9 -9 -9 -9 -9 -9 -9 -9 -9 -9 -9 -9 -9 -9 -9 -9 -9 -9 -9
-11 -11 -11 -11 -10 -11 -11 -11 -11 -11 -12 -11 -10 -10 -10 -10 -10 -10 -10 -11 -11 -11 -11 -10 -10 -10 -10 -9 -9 -9 -9 -9 -9 -9 -9 -9 -9 -9 -9 -9 -9 -9 -9 -9 -9 -9 -9 -9 -9
-11 -11 -11 -11 -11 -11 -11 -11 -11 -11 -12 -12 -11 -11 -10 -10 -10 -10 -11 -11 -12 -11 -11 -11 -10 -10 -10 -9 -9 -9 -9 -9 -9 -9 -9 -9 -9 -9 -10 -10 -10 -10 -10 -10 -10 -10 -10 -9 -9
-11 -11 -11 -11 -12 -12 -11 -11 -11 -11 -11 -12 -12 -12 -11 -11 -11 -11 -11 -11 -11 -11 -11 -11 -11 -11 -10 -10 -10 -9 -9 -9 -9 -9 -9 -9 -9 -10 -10 -10 -10 -10 -10 -10 -10 -10 -10 -10 -10
-12 -12 -11 -11 -12 -13 -12 -12 -12 -11 -11 -12 -12 -12 -12 -12 -11 -11 -11 -11 -12 -12 -11 -11 -11 -11 -11 -10 -10 -10 -9 -9 -9 -9 -9 -9 -9 -10 -10 -10 -10 -10 -10 -10 -10 -10 -10 -10 -10
-12 -12 -12 -12 -12 -13 -14 -12 -12 -12 -12 -11 -12 -12 -12 -12 -12 -11 -11 -11 -12 -12 -11 -11 -11 -11 -11 -11 -10 -10 -10 -10 -9 -9 -10 -9 -9 -10 -10 -10 -10 -10 -10 -10 -10 -10 -10 -10 -10
-12 -12 -12 -13 -13 -13 -14 -13 -12 -12 -12 -11 -12 -12 -13 -13 -12 -12 -11 -11 -12 -12 -12 -12 -11 -11 -11 -11 -11 -10 -10 -10 -10 -9 -10 -10 -10 -10 -10 -10 -10 -10 -10 -10 -10 -10 -10 -10 -10
-12 -12 -12 -13 -14 -14 -14 -13 -13 -12 -12 -12 -12 -12 -13 -13 -13 -13 -12 -12 -12 -12 -12 -12 -11 -11 -11 -12 -11 -11 -11 -10 -10 -10 -10 -10 -10 -10 -10 -10 -10 -10 -10 -10 -10 -10 -10 -10 -10
-12 -12 -13 -14 -14 -14 -14 -14 -14 -13 -12 -12 -12 -12 -13 -13 -13 -13 -12 -12 -12 -12 -12 -12 -12 -11 -11 -11 -11 -11 -11 -11 -10 -10 -10 -10 -10 -10 -10 -10 -10 -10 -10 -10 -10 -10 -10 -10 -10
-14 -14 -15 -15 -15 -14 -14 -14 -14 -13 -13 -13 -13 -13 -13 -13 -13 -13 -13 -12 -12 -12 -12 -12 -12 -12 -12 -11 -11 -11 -11 -11 -11 -10 -10 -10 -10 -10 -10 -10 -10 -10 -10 -10 -10 -10 -10 -10 -10
-16 -16 -16 -15 -15 -15 -15 -15 -14 -14 -13 -13 -13 -13 -13 -13 -13 -13 -12 -13 -12 -12 -12 -12 -12 -12 -12 -12 -12 -11 -11 -11 -11 -11 -10 -10 -10 -10 -10 -10 -10 -10 -10 -10 -10 -10 -10 -10 -10
-17 -17 -17 -16 -16 -16 -15 -15 -15 -15 -14 -14 -14 -14 -13 -14 -14 -13 -13 -13 -14 -14 -13 -12 -12 -12 -12 -12 -12 -12 -11 -11 -11 -11 -11 -11 -11 -10 -10 -10 -10 -10 -10 -10 -10 -10 -10 -10 -10
-17 -17 -17 -17 -17 -16 -16 -16 -17 -16 -15 -14 -14 -14 -14 -14 -13 -13 -13 -13 -13 -13 -14 -13 -13 -13 -12 -12 -12 -12 -12 -12 -11 -11 -11 -11 -11 -11 -10 -10 -10 -10 -10 -10 -10 -10 -10 -10 -10
-17 -17 -17 -17 -17 -16 -16 -16 -17 -16 -15 -14 -15 -15 -14 -14 -14 -14 -14 -13 -13 -13 -13 -14 -13 -13 -13 -12 -12 -12 -13 -12 -12 -12 -12 -12 -11 -11 -11 -11 -11 -11 -11 -11 -11 -11 -11 -11 -11
-18 -18 -17 -17 -17 -16 -16 -16 -17 -17 -16 -16 -14 -15 -15 -15 -15 -14 -14 -14 -13 -12 -13 -14 -13 -13 -13 -13 -12 -13 -13 -13 -13 -12 -12 -12 -12 -12 -11 -11 -11 -11 -11 -11 -11 -11 -11 -11 -11
-18 -17 -17 -17 -17 -17 -17 -17 -17 -17 -17 -17 -16 -15 -15 -16 -15 -15 -14 -14 -13 -13 -13 -13 -13 -14 -13 -13 -13 -13 -13 -13 -13 -13 -13 -13 -12 -12 -12 -12 -12 -11 -11 -11 -11 -11 -11 -11 -11
-17 -17 -17 -17 -17 -17 -17 -17 -17 -17 -17 -17 -16 -16 -16 -17 -15 -15 -14 -14 -13 -13 -13 -13 -13 -13 -13 -13 -13 -13 -13 -13 -13 -13 -13 -13 -13 -13 -13 -13 -12 -12 -12 -12 -12 -11 -11 -11 -11
-17 -17 -17 -17 -17 -17 -18 -17 -17 -16 -17 -17 -16 -16 -15 -15 -15 -15 -14 -14 -14 -13 -13 -13 -13 -13 -13 -13 -13 -13 -13 -13 -13 -13 -13 -13 -13 -13 -13 -13 -13 -13 -13 -12 -12 -12 -12 -12 -12
-17 -18 -17 -18 -18 -17 -17 -18 -17 -17 -16 -17 -17 -16 -16 -16 -16 -16 -15 -15 -14 -14 -13 -13 -13 -13 -13 -13 -12 -12 -12 -13 -13 -13 -13 -13 -13 -13 -13 -13 -13 -13 -13 -13 -13 -13 -12 -12 -12
-18 -18 -18 -18 -18 -18 -17 -17 -18 -17 -17 -17 -16 -16 -16 -16 -16 -16 -16 -15 -14 -14 -14 -14 -13 -13 -13 -12 -11 -12 -12 -13 -13 -13 -13 -13 -13 -13 -13 -13 -13 -13 -13 -13 -13 -13 -13 -13 -13
-18 -18 -19 -19 -18 -18 -18 -17 -18 -17 -17 -17 -16 -16 -16 -16 -16 -16 -15 -16 -15 -14 -14 -14 -14 -13 -13 -13 -13 -13 -12 -12 -12 -13 -13 -13 -13 -13 -13 -13 -14 -13 -14 -14 -14 -13 -13 -13 -13
-18 -18 -19 -19 -19 -19 -19 -18 -18 -18 -17 -17 -16 -16 -16 -16 -16 -15 -15 -15 -16 -15 -14 -14 -14 -14 -13 -13 -13 -13 -13 -12 -12 -12 -13 -13 -13 -13 -13 -13 -13 -13 -13 -13 -13 -13 -13 -13 -14
-18 -18 -18 -19 -19 -20 -19 -18 -18 -18 -17 -17 -17 -16 -16 -16 -16 -15 -15 -15 -14 -15 -15 -14 -14 -14 -14 -13 -13 -13 -13 -13 -13 -13 -13 -12 -13 -13 -13 -13 -14 -13 -13 -13 -14 -14 -14 -14 -14
-18 -19 -19 -19 -19 -20 -19 -19 -18 -18 -18 -17 -17 -17 -16 -16 -16 -16 -15 -15 -15 -15 -15 -15 -14 -14 -14 -14 -13 -13 -14 -14 -13 -13 -13 -13 -13 -13 -13 -13 -13 -13 -13 -13 -13 -13 -15 -14 -14
-18 -18 -19 -19 -19 -20 -19 -19 -19 -19 -18 -18 -17 -17 -17 -16 -16 -16 -16 -15 -15 -15 -15 -15 -15 -15 -14 -15 -14 -14 -14 -14 -14 -14 -14 -14 -14 -14 -14 -13 -13 -13 -13 -13 -13 -14 -14 -14 -14
-18 -18 -19 -19 -20 -19 -19 -19 -19 -19 -19 -18 -18 -18 -17 -17 -16 -16 -16 -16 -15 -15 -15 -15 -15 -15 -15 -15 -15 -14 -15 -14 -14 -14 -14 -14 -14 -14 -13 -14 -13 -14 -13 -14 -14 -14 -14 -14 -14
-18 -18 -18 -19 -19 -19 -19 -19 -19 -18 -18 -18 -18 -18 -18 -17 -17 -16 -16 -16 -16 -15 -15 -15 -15 -15 -15 -16 -15 -15 -15 -15 -15 -15 -14 -14 -14 -14 -14 -14 -14 -14 -14 -14 -14 -13 -13 -14 -14
-17 -18 -18 -18 -18 -18 -19 -19 -19 -19 -18 -18 -18 -18 -17 -17 -16 -16 -16 -16 -16 -16 -15 -15 -15 -15 -15 -15 -16 -16 -16 -15 -15 -15 -15 -15 -14 -14 -14 -14 -14 -15 -15 -13 -12 -14 -13 -13 -14
-18 -18 -18 -18 -18 -18 -18 -18 -18 -18 -18 -18 -18 -17 -17 -17 -17 -16 -16 -16 -16 -16 -16 -16 -16 -16 -16 -16 -15 -16 -16 -17 -16 -15 -15 -15 -15 -15 -15 -15 -14 -14 -14 -14 -14 -14 -14 -14 -14
-18 -18 -18 -18 -18 -18 -18 -18 -18 -18 -18 -18 -18 -17 -17 -17 -17 -17 -17 -15 -16 -16 -16 -16 -16 -16 -16 -16 -16 -16 -16 -17 -17 -17 -16 -15 -15 -15 -15 -15 -15 -15 -15 -14 -14 -14 -14 -14 -14
Height
5808 5809 5810 5811 5813 5812 5812 5811 5809 5811 5813 5815 5817 5820 5822 5822 5823 5826 5824 5825 5827 5829 5832 5833 5836 5839 5842 5844 5847 5848 5851 5853 5855 5858 5859 5862 5863 5864 5865 5866 5865 5865 5864 5865 5865 5865 5865 5865 5866
5803 5803 5804 5805 5808 5809 5810 5807 5806 5807 5810 5811 5813 5816 5819 5820 5821 5822 5823 5824 5825 5827 5830 5832 5835 5837 5841 5844 5845 5848 5850 5852 5855 5857 5859 5861 5863 5864 5865 5865 5865 5864 5864 5864 5864 5865 5864 5865 5865
5798 5798 5799 5800 5802 5806 5805 5803 5803 5804 5806 5808 5810 5813 5816 5817 5819 5820 5820 5823 5825 5825 5827 5831 5833 5835 5839 5843 5845 5847 5849 5852 5854 5856 5858 5860 5862 5864 5865 5865 5865 5865 5864 5864 5864 5865 5864 5865 5866
5793 5794 5794 5794 5798 5799 5799 5798 5799 5800 5802 5804 5806 5810 5814 5814 5816 5817 5817 5819 5823 5825 5826 5829 5831 5833 5837 5840 5844 5847 5848 5850 5853 5855 5857 5859 5861 5863 5864 5865 5865 5865 5865 5864 5865 5865 5865 5865 5866
5786 5787 5786 5789 5793 5793 5792 5792 5794 5796 5797 5799 5803 5806 5809 5810 5813 5814 5816 5816 5820 5823 5825 5827 5830 5832 5835 5839 5842 5845 5847 5849 5852 5854 5856 5858 5860 5862 5864 5865 5865 5865 5865 5864 5864 5865 5865 5866 5866
5780 5779 5780 5783 5785 5786 5786 5787 5788 5791 5792 5795 5797 5802 5805 5807 5809 5811 5813 5815 5817 5821 5824 5826 5828 5830 5833 5837 5839 5842 5845 5848 5850 5853 5855 5856 5858 5860 5862 5864 5865 5865 5865 5865 5865 5864 5864 5864 5865
5772 5772 5772 5775 5778 5780 5780 5782 5783 5786 5787 5790 5793 5797 5801 5804 5805 5807 5810 5812 5814 5817 5821 5824 5826 5828 5831 5834 5837 5840 5843 5846 5848 5850 5853 5855 5857 5859 5861 5862 5864 5864 5865 5865 5865 5865 5864 5864 5865
5761 5762 5764 5767 5771 5773 5773 5774 5777 5781 5783 5785 5788 5792 5797 5799 5800 5802 5806 5808 5811 5814 5818 5821 5824 5827 5828 5831 5833 5837 5840 5842 5846 5848 5850 5853 5855 5858 5860 5861 5862 5863 5863 5864 5863 5864 5864 5863 5863
5750 5751 5754 5757 5761 5764 5766 5767 5771 5775 5778 5780 5784 5787 5791 5793 5796 5799 5801 5804 5807 5810 5813 5817 5821 5824 5826 5828 5832 5833 5836 5838 5842 5845 5848 5851 5853 5856 5858 5859 5861 5861 5862 5862 5863 5863 5863 5863 5862
5739 5741 5743 5746 5752 5756 5758 5760 5763 5767 5771 5775 5778 5782 5785 5788 5791 5794 5796 5798 5801 5805 5809 5812 5816 5820 5824 5826 5828 5830 5833 5836 5838 5841 5844 5847 5850 5853 5856 5857 5859 5859 5860 5861 5861 5861 5862 5862 5861
5731 5732 5733 5736 5741 5745 5749 5751 5754 5758 5762 5767 5772 5777 5780 5783 5786 5788 5790 5793 5796 5800 5804 5808 5812 5816 5820 5823 5825 5827 5830 5833 5835 5838 5841 5843 5846 5850 5853 5855 5856 5857 5858 5859 5860 5860 5860 5860 5860
5722 5724 5726 5727 5731 5736 5740 5741 5744 5750 5754 5759 5765 5770 5775 5777 5779 5781 5786 5788 5791 5795 5799 5803 5807 5812 5815 5819 5822 5825 5827 5830 5832 5834 5838 5840 5843 5846 5849 5851 5853 5854 5855 5856 5856 5856 5857 5857 5857
5716 5716 5718 5720 5722 5726 5731 5733 5736 5741 5747 5750 5756 5763 5767 5770 5773 5775 5778 5786 5788 5789 5793 5798 5802 5807 5810 5814 5818 5821 5824 5826 5829 5830 5834 5836 5840 5842 5844 5847 5848 5850 5851 5852 5853 5853 5853 5854 5854
5709 5709 5711 5713 5715 5719 5724 5726 5728 5732 5739 5744 5748 5753 5758 5763 5767 5769 5772 5779 5783 5785 5787 5792 5797 5802 5806 5810 5813 5816 5819 5822 5825 5827 5830 5832 5835 5837 5839 5842 5844 5845 5846 5847 5848 5849 5849 5849 5849
5704 5704 5706 5708 5710 5713 5718 5722 5721 5725 5730 5736 5741 5745 5750 5756 5761 5764 5767 5773 5774 5777 5783 5788 5792 5796 5800 5804 5808 5811 5813 5818 5820 5823 5825 5828 5830 5832 5834 5835 5837 5840 5841 5842 5843 5843 5844 5843 5844
5702 5701 5702 5704 5705 5707 5711 5713 5716 5719 5725 5731 5734 5738 5742 5748 5752 5757 5761 5766 5770 5771 5774 5780 5785 5791 5794 5799 5802 5805 5807 5813 5814 5816 5820 5823 5825 5827 5829 5829 5831 5832 5834 5835 5837 5837 5838 5837 5837
5700 5699 5699 5700 5700 5701 5702 5705 5708 5715 5719 5723 5728 5731 5735 5737 5745 5751 5755 5760 5764 5766 5772 5775 5779 5783 5784 5791 5795 5798 5801 5806 5809 5811 5814 5817 5820 5821 5823 5824 5825 5826 5827 5828 5830 5831 5832 5832 5832
5696 5695 5696 5696 5696 5696 5697 5701 5706 5709 5712 5714 5720 5726 5729 5734 5739 5743 5747 5752 5757 5761 5765 5768 5772 5776 5778 5783 5789 5792 5795 5799 5804 5807 5809 5811 5813 5814 5816 5818 5820 5821 5822 5822 5823 5824 5825 5825 5825
5694 5693 5693 5693 5692 5693 5696 5697 5700 5703 5706 5709 5714 5719 5723 5728 5732 5739 5743 5746 5747 5752 5757 5760 5762 5766 5766 5774 5782 5786 5789 5792 5796 5799 5801 5802 5804 5807 5809 5812 5813 5814 5814 5815 5816 5817 5817 5818 5818
5692 5691 5690 5690 5690 5691 5692 5694 5695 5698 5700 5704 5708 5712 5716 5721 5726 5730 5735 5739 5742 5745 5749 5752 5757 5760 5763 5765 5766 5769 5768 5776 5781 5786 5789 5793 5796 5800 5803 5805 5806 5807 5807 5808 5808 5809 5809 5809 5810
5692 5691 5688 5687 5687 5687 5688 5690 5692 5694 5695 5698 5701 5705 5710 5714 5718 5722 5725 5730 5734 5737 5742 5745 5749 5753 5758 5761 5766 5765 5765 5763 5760 5778 5783 5786 5787 5790 5794 5796 5798 5799 5800 5801 5800 5801 5800 5801 5801
5690 5688 5686 5685 5683 5683 5684 5686 5687 5690 5692 5694 5697 5699 5703 5707 5711 5715 5718 5722 5725 5728 5732 5737 5741 5745 5748 5753 5756 5759 5761 5763 5756 5767 5771 5777 5778 5780 5783 5787 5790 5791 5792 5792 5791 5791 5792 5792 5792
5690 5686 5684 5682 5680 5679 5680 5682 5683 5686 5689 5691 5693 5694 5697 5700 5704 5708 5711 5714 5716 5719 5724 5727 5731 5736 5739 5743 5747 5751 5754 5757 5758 5761 5763 5763 5769 5772 5775 5776 5779 5782 5782 5781 5781 5782 5783 5784 5785
5690 5688 5684 5681 5678 5677 5677 5679 5680 5682 5685 5687 5689 5691 5693 5695 5698 5701 5704 5706 5708 5711 5714 5718 5722 5725 5729 5733 5738 5742 5745 5748 5751 5753 5757 5758 5752 5759 5768 5768 5770 5773 5774 5773 5773 5771 5771 5774 5774
5689 5686 5682 5681 5679 5678 5677 5678 5679 5680 5682 5684 5685 5686 5687 5689 5691 5693 5696 5698 5699 5701 5704 5708 5712 5715 5719 5722 5727 5732 5736 5739 5742 5745 5748 5751 5754 5755 5758 5758 5762 5765 5764 5765 5765 5763 5764 5766 5767
5690 5686 5683 5680 5678 5679 5678 5678 5679 5679 5680 5680 5681 5681 5681 5681 5683 5685 5687 5689 5691 5692 5695 5698 5701 5704 5708 5712 5715 5720 5725 5729 5733 5736 5739 5742 5744 5747 5749 5752 5755 5757 5758 5757 5758 5758 5759 5759 5759
5689 5687 5684 5681 5678 5677 5676 5677 5677 5677 5677 5677 5678 5678 5677 5677 5677 5677 5679 5681 5683 5684 5685 5688 5691 5694 5696 5700 5704 5708 5713 5717 5721 5725 5728 5732 5736 5739 5741 5744 5748 5749 5748 5749 5751 5752 5751 5752 5751
5689 5686 5684 5681 5678 5676 5675 5673 5674 5674 5674 5674 5674 5673 5673 5672 5672 5672 5672 5672 5673 5674 5676 5677 5679 5683 5686 5689 5692 5695 5699 5704 5708 5712 5717 5721 5726 5730 5732 5735 5738 5738 5737 5739 5738 5743 5739 5740 5740
5686 5683 5682 5681 5679 5676 5674 5673 5672 5672 5672 5671 5671 5670 5670 5669 5669 5668 5667 5666 5666 5666 5667 5667 5668 5670 5673 5676 5679 5683 5686 5690 5695 5700 5704 5710 5715 5720 5722 5725 5728 5729 5731 5733 5734 5734 5732 5729 5730
5684 5681 5680 5679 5679 5677 5675 5675 5672 5671 5670 5669 5669 5667 5666 5666 5664 5663 5661 5659 5660 5660 5660 5660 5661 5662 5663 5663 5663 5667 5671 5677 5682 5686 5692 5697 5704 5708 5712 5715 5717 5718 5721 5723 5724 5724 5724 5721 5720
Wind_Speed
28 26 25 25 25 21 18 23 32 30 27 25 22 19 17 16 17 13 14 15 13 12 13 12 12 19 18 20 19 18 16 18 20 19 16 13 15 11 8 3 2 2 2 3 3 3 3 3 4
29 28 30 26 26 22 18 23 27 31 30 28 26 23 18 19 17 14 15 18 16 13 13 14 14 19 21 20 19 18 17 18 21 20 16 13 15 12 9 3 1 2 2 3 4 3 2 3 4
32 33 32 31 26 19 21 25 26 27 29 31 27 24 22 20 18 16 15 18 17 14 14 15 15 18 22 22 20 19 18 19 21 20 17 15 16 13 8 3 2 2 3 5 4 3 3 3 4
34 34 34 34 28 22 23 28 28 26 25 31 30 26 19 21 19 19 18 21 20 16 16 16 15 19 23 23 21 19 18 20 22 20 18 16 16 13 9 4 3 3 3 4 4 3 2 2 3
38 38 36 34 30 21 24 29 28 28 26 27 31 29 23 23 21 22 21 23 23 20 17 18 18 21 23 22 22 20 19 21 22 21 18 16 15 14 10 6 5 4 4 5 4 3 1 0 1
34 39 39 36 29 26 30 32 30 28 28 27 29 32 28 23 22 21 22 23 25 24 20 18 20 22 27 24 23 21 20 21 23 22 19 17 14 15 12 8 6 6 5 5 4 2 2 1 2
30 37 39 37 30 30 33 37 35 29 31 29 26 29 31 26 24 23 23 24 26 27 23 21 20 22 25 25 25 23 21 21 24 24 20 18 15 15 14 10 8 6 6 5 4 3 1 1 1
35 34 37 37 30 29 36 35 36 33 31 30 26 23 29 28 29 26 24 24 25 29 28 24 22 22 23 25 27 25 23 23 25 26 23 20 18 14 15 13 10 8 6 6 5 5 4 4 5
36 37 35 35 34 32 33 36 36 36 31 30 27 23 25 30 30 28 27 24 25 29 30 27 25 24 23 24 25 26 27 26 27 28 25 23 20 17 14 13 12 11 8 7 5 5 6 7 10
37 36 34 36 35 36 35 35 39 37 34 31 28 25 24 31 31 31 32 29 27 27 32 32 29 28 25 24 26 27 28 27 28 29 28 26 23 20 17 15 13 13 10 9 8 7 8 9 11
33 32 33 35 36 36 39 40 37 40 36 33 30 26 25 25 33 31 36 37 31 29 32 34 32 31 28 26 26 28 29 29 29 30 30 29 26 23 20 18 16 15 13 12 11 11 12 13 13
30 29 29 33 34 36 37 37 36 35 37 40 34 28 25 25 30 37 36 28 37 34 31 35 35 32 31 30 25 26 28 30 30 30 30 31 29 26 24 22 21 19 18 17 17 17 16 16 17
24 24 26 30 33 35 37 37 38 37 37 38 37 33 29 29 29 32 38 35 32 38 39 31 36 35 33 32 29 25 27 30 31 29 30 30 31 29 28 27 26 25 24 23 22 22 22 21 21
21 20 24 26 31 35 37 38 39 40 36 34 28 36 33 32 30 30 32 29 29 27 38 38 32 37 36 32 31 30 30 29 31 31 28 28 30 31 31 30 30 29 28 28 28 27 27 26 25
19 17 19 22 25 31 33 37 39 40 39 35 32 24 37 35 31 33 33 35 32 26 31 38 34 32 38 36 34 33 33 29 29 30 29 28 27 29 31 32 32 32 32 32 32 31 30 31 30
17 14 15 18 21 25 30 34 38 39 39 37 37 32 40 36 35 35 34 32 38 37 30 28 32 39 35 38 39 37 37 33 32 31 29 27 27 29 29 30 32 32 34 34 35 34 33 33 32
14 13 13 15 19 22 28 32 35 36 38 39 38 38 34 43 40 39 37 35 35 34 36 33 31 34 38 40 42 41 40 37 36 34 31 30 29 28 30 31 31 32 32 34 34 34 33 33 33
14 11 11 13 16 20 23 28 31 35 38 39 38 37 36 38 42 42 41 38 37 36 35 33 41 38 29 43 43 43 44 42 39 38 36 37 36 35 33 33 32 33 35 37 37 36 35 35 35
15 12 11 12 18 19 20 21 24 30 34 35 35 36 35 33 32 40 40 41 41 40 38 37 36 38 34 35 35 40 39 44 44 44 42 42 41 40 39 38 37 38 38 39 39 39 38 38 38
14 14 13 14 16 21 22 20 21 24 28 32 31 33 35 33 32 31 48 41 44 44 41 40 39 38 43 42 37 35 38 48 47 48 48 47 45 45 43 43 42 41 42 42 42 42 42 41 41
19 16 13 13 17 19 21 24 20 21 24 27 31 31 32 32 31 30 28 50 49 49 45 44 43 42 40 41 42 44 42 38 34 44 47 45 45 46 45 44 44 43 43 43 45 45 45 44 42
18 18 16 13 16 18 18 19 22 21 22 21 25 28 30 32 32 30 29 33 50 52 48 48 47 46 45 43 41 42 48 42 35 40 41 44 47 46 43 44 40 40 43 44 44 46 46 45 44
19 15 12 15 16 16 16 18 19 20 23 23 21 23 25 27 30 30 30 30 35 44 60 58 52 49 49 49 46 44 44 43 46 44 45 38 47 36 38 42 45 45 46 51 46 46 46 45 44
18 17 17 16 12 12 12 16 17 19 18 21 25 26 23 22 23 25 26 28 29 37 43 53 60 53 51 51 51 49 46 45 46 46 49 45 34 32 36 42 41 44 49 37 36 44 49 43 44
20 22 20 15 12 7 6 11 13 15 18 20 21 23 26 28 29 29 30 29 29 30 33 40 47 59 55 53 52 53 49 49 46 47 48 47 47 47 53 39 38 46 41 35 24 22 33 41 43
19 20 19 16 13 9 7 6 7 9 11 13 16 20 25 28 30 32 34 34 34 36 34 34 35 44 56 58 54 54 54 52 51 50 50 50 48 45 45 44 45 45 39 30 30 33 31 30 36
16 18 18 17 15 12 13 14 14 14 16 16 16 20 23 25 28 31 34 37 38 38 40 40 39 40 43 46 60 53 53 55 54 53 53 51 49 47 47 44 39 49 37 34 33 32 35 35 36
17 17 18 18 16 17 13 9 10 10 11 12 14 14 17 19 20 20 22 22 24 28 36 45 47 46 45 47 50 54 57 53 53 55 54 53 52 49 48 49 43 43 35 33 36 39 40 36 34
17 16 16 17 16 16 15 11 7 9 11 12 14 11 13 15 18 20 23 23 26 27 25 22 29 37 47 52 53 55 56 57 57 55 54 54 52 48 48 45 44 43 40 36 39 41 33 31 38
20 14 15 16 14 14 13 11 11 12 12 13 13 13 13 15 20 22 24 22 20 21 26 19 18 22 28 35 46 60 59 57 55 58 57 53 49 50 50 48 46 46 41 41 43 45 52 34 31
Wind_Direction
274 279 275 267 262 259 265 261 253 248 245 245 242 238 235 235 238 223 206 202 200 207 207 194 195 190 182 177 175 174 179 175 171 171 171 170 174 180 186 201 164 98 87 164 163 141 120 124 162
264 273 273 268 265 265 263 266 259 252 246 246 242 235 227 236 238 222 212 202 197 205 209 192 197 189 187 186 182 186 182 184 178 176 176 177 184 192 201 224 162 81 75 155 158 139 114 122 150
256 264 268 268 266 270 257 260 263 258 248 248 245 238 231 233 237 227 212 210 201 205 211 196 195 194 193 194 190 194 190 187 185 182 182 185 192 198 205 213 160 88 110 157 155 139 124 133 134
259 260 262 262 266 258 255 255 260 261 256 243 243 244 237 238 235 228 212 209 206 207 212 202 201 199 199 197 197 204 198 192 190 188 191 193 198 204 209 201 179 122 125 164 164 156 116 143 133
256 256 256 257 262 248 251 251 253 258 259 255 240 240 238 235 242 234 220 209 207 207 211 205 203 197 198 201 203 208 208 198 195 197 199 201 204 209 214 203 189 161 128 148 173 188 168 210 150
262 256 254 257 260 247 242 251 249 250 256 258 250 238 236 239 239 236 229 218 208 208 212 209 206 200 201 208 207 212 213 206 202 202 206 206 208 213 215 216 204 186 159 131 144 179 213 247 261
269 261 256 252 253 248 250 243 251 247 249 254 259 243 236 240 235 236 231 225 213 208 211 212 210 205 209 211 214 218 215 211 209 208 213 212 214 216 217 218 216 212 198 189 177 162 154 312 308
275 259 257 251 249 245 249 253 247 245 247 250 255 254 238 237 239 230 227 226 219 211 211 213 214 212 208 209 212 214 216 217 212 211 215 219 217 218 222 220 222 222 220 221 227 243 237 262 292
267 262 249 249 242 239 235 244 240 246 241 246 249 249 235 231 238 234 228 222 223 215 212 214 215 217 216 212 212 212 214 214 215 215 216 221 222 218 221 226 227 231 232 242 255 274 284 280 280
262 257 247 244 241 236 237 243 234 239 239 241 242 240 244 237 236 243 229 224 221 218 213 215 217 218 220 223 221 218 215 214 216 218 218 221 224 224 221 225 232 236 241 247 259 271 281 286 290
266 256 249 243 238 238 238 243 245 239 233 237 239 239 238 244 235 235 245 222 219 219 216 215 219 220 222 224 227 226 221 217 218 221 221 223 225 225 227 231 235 240 245 254 265 273 278 285 289
280 263 249 242 238 233 233 238 240 242 242 236 235 233 232 231 238 237 238 254 220 217 220 218 218 221 224 227 229 233 228 226 222 224 225 227 228 229 229 232 240 244 248 255 261 267 273 280 287
287 265 251 243 237 231 229 231 232 236 240 243 229 228 225 230 235 238 235 235 242 232 217 220 220 220 223 225 229 230 232 230 230 227 227 230 233 233 234 236 240 244 251 256 260 265 270 275 280
298 264 248 240 237 233 228 231 228 234 239 241 235 224 222 227 228 232 232 228 240 242 229 211 221 222 224 225 226 229 228 231 233 233 231 231 233 237 239 240 244 246 250 255 260 264 269 273 276
303 268 253 243 239 236 230 232 233 234 236 240 245 247 220 223 224 228 232 221 219 232 208 217 218 228 226 225 227 227 233 229 235 239 239 238 237 240 242 243 246 249 252 255 260 265 269 272 275
310 280 263 245 239 237 233 231 235 236 237 235 236 240 224 223 221 225 229 234 229 233 233 215 228 224 231 228 228 230 234 230 231 235 240 242 244 247 249 249 250 251 253 256 258 262 266 270 274
315 289 276 249 239 236 232 231 232 235 238 235 234 237 238 217 223 224 228 230 232 232 233 241 237 235 226 229 229 228 233 234 238 241 240 244 247 249 251 255 256 258 260 263 264 265 267 269 274
301 291 283 257 242 237 239 236 233 234 238 239 237 239 244 234 223 222 226 227 232 233 228 232 233 231 235 236 231 232 232 235 237 242 246 247 246 248 251 254 257 261 263 264 266 270 272 273 274
299 289 280 268 251 247 244 246 242 237 242 243 240 240 242 242 235 228 230 233 230 231 235 230 236 237 218 225 231 242 237 238 238 240 242 246 248 249 251 254 258 260 263 266 269 271 272 274 275
330 313 291 271 260 252 248 243 243 242 240 244 243 241 242 243 243 233 228 233 236 234 232 232 233 236 242 230 225 235 230 236 230 236 240 243 250 253 255 257 257 260 263 265 267 269 270 272 273
344 333 317 293 272 259 251 248 241 240 240 239 245 245 244 243 242 243 240 227 232 238 234 234 236 236 238 244 238 235 239 235 238 236 240 243 247 252 255 257 260 262 263 266 268 269 270 271 273
331 314 304 306 300 272 251 245 242 233 240 242 242 246 246 247 248 247 243 242 234 232 235 237 236 236 237 240 242 246 250 244 249 237 247 241 246 247 254 255 257 263 264 263 265 268 270 272 273
355 350 335 305 289 280 251 244 241 237 234 239 244 246 245 247 249 250 253 250 244 239 237 237 240 237 238 239 241 241 244 246 249 245 236 245 243 250 260 260 252 260 266 279 260 264 267 270 275
0 348 350 345 300 279 253 243 241 241 238 238 244 249 252 251 249 253 256 255 251 246 239 240 241 241 241 242 241 243 244 243 245 251 244 248 253 261 259 254 260 258 268 264 280 272 259 267 273
357 353 340 334 351 332 286 260 256 253 252 249 247 248 250 251 251 250 252 255 254 249 247 244 243 244 242 243 244 245 246 246 245 245 250 252 254 259 259 265 270 267 268 276 276 293 282 272 274
355 356 353 342 313 308 312 299 288 280 271 263 257 257 254 252 250 250 248 247 247 252 250 243 242 243 244 242 245 243 244 247 249 247 246 250 254 255 256 261 261 269 270 269 266 283 287 277 292
344 357 350 345 347 326 294 279 273 274 273 272 271 269 268 266 266 263 262 258 253 251 253 252 247 241 241 246 244 245 247 245 246 249 249 249 250 252 254 258 261 258 272 270 282 277 281 276 287
322 333 349 348 343 345 350 325 281 281 281 282 277 274 273 264 263 262 265 262 263 260 254 252 251 249 245 242 241 244 245 248 248 248 247 247 249 253 255 256 257 260 272 270 263 267 264 263 270
321 316 329 338 342 339 343 326 314 307 309 309 318 310 288 277 277 274 268 268 264 264 265 261 255 254 251 248 245 243 245 245 245 249 249 249 250 252 254 255 256 257 260 260 265 271 277 263 262
334 309 309 322 332 341 339 334 321 313 312 318 323 316 306 292 285 281 280 279 273 266 252 258 263 265 264 259 255 246 244 245 248 247 247 250 251 252 254 255 255 259 259 261 264 264 268 274 280